TimeCDT,TemperatureF,Dew PointF,Humidity,Sea Level PressureIn,VisibilityMPH,Wind Direction,Wind SpeedMPH,Gust SpeedMPH,PrecipitationIn,Events,Conditions,WindDirDegrees,DateUTC
12:53 AM,79.0,70.0,74,29.85,10.0,South,11.5,-,N/A,,Partly Cloudy,180,2013-05-21 05:53:00
1:34 AM,78.8,66.2,65,29.89,8.0,West,20.7,59.8,0.00,Rain,Light Rain,280,2013-05-21 06:34:00
1:42 AM,71.6,62.6,73,29.91,10.0,WNW,16.1,38.0,0.00,Rain-Thunderstorm,Light Rain,300,2013-05-21 06:42:00
1:53 AM,69.1,62.1,78,29.87,10.0,NW,11.5,21.9,0.01,Rain,Light Rain,320,2013-05-21 06:53:00
2:53 AM,66.9,63.0,87,29.86,10.0,NNW,4.6,-,0.00,Rain,Light Rain,330,2013-05-21 07:53:00
3:53 AM,66.0,63.0,90,29.85,10.0,WSW,4.6,-,0.01,,Partly Cloudy,240,2013-05-21 08:53:00
4:46 AM,66.2,64.4,94,29.91,10.0,West,8.1,-,N/A,Thunderstorm,Thunderstorm,260,2013-05-21 09:46:00
4:53 AM,66.9,64.0,90,29.91,10.0,West,9.2,-,0.00,Rain-Thunderstorm,Light Thunderstorms and Rain,260,2013-05-21 09:53:00
5:53 AM,68.0,64.0,87,29.88,10.0,South,9.2,-,0.00,,Mostly Cloudy,170,2013-05-21 10:53:00
6:53 AM,68.0,64.9,90,29.89,10.0,SSE,10.4,-,N/A,Thunderstorm,Scattered Clouds,160,2013-05-21 11:53:00
7:17 AM,66.2,64.4,94,29.95,2.5,West,9.2,-,0.00,Rain-Thunderstorm,Light Thunderstorms and Rain,260,2013-05-21 12:17:00
7:25 AM,66.2,64.4,94,29.99,1.5,West,10.4,25.3,0.00,Rain-Thunderstorm,Heavy Thunderstorms and Rain,280,2013-05-21 12:25:00
7:44 AM,64.4,62.6,94,29.95,3.0,SSE,8.1,-,N/A,Rain-Thunderstorm,Thunderstorms and Rain,160,2013-05-21 12:44:00
7:53 AM,64.9,63.0,93,29.95,10.0,South,5.8,-,N/A,Rain-Thunderstorm,Light Thunderstorms and Rain,170,2013-05-21 12:53:00
8:53 AM,64.9,63.0,93,29.87,10.0,SE,16.1,-,N/A,Rain,Light Rain,130,2013-05-21 13:53:00
9:33 AM,66.2,62.6,88,29.89,10.0,SSE,16.1,-,N/A,Thunderstorm,Partly Cloudy,160,2013-05-21 14:33:00
9:48 AM,66.2,62.6,88,29.88,10.0,SSE,15.0,-,N/A,,Clear,160,2013-05-21 14:48:00
9:53 AM,66.0,63.0,90,29.88,10.0,SSE,15.0,-,N/A,,Clear,160,2013-05-21 14:53:00
10:53 AM,69.1,64.9,87,29.88,10.0,South,9.2,-,N/A,,Scattered Clouds,170,2013-05-21 15:53:00
11:40 AM,69.8,66.2,88,29.92,10.0,SW,5.8,-,N/A,,Mostly Cloudy,230,2013-05-21 16:40:00
11:51 AM,71.6,66.2,83,29.91,10.0,SSW,6.9,-,N/A,,Mostly Cloudy,210,2013-05-21 16:51:00
11:53 AM,71.1,66.0,84,29.90,10.0,SW,6.9,-,N/A,,Mostly Cloudy,220,2013-05-21 16:53:00
12:28 PM,73.4,68.0,83,29.89,10.0,SSW,4.6,-,0.00,,Overcast,210,2013-05-21 17:28:00
12:53 PM,75.0,68.0,79,29.87,10.0,SW,4.6,-,0.00,,Overcast,230,2013-05-21 17:53:00
1:53 PM,75.9,68.0,76,29.85,10.0,SE,6.9,-,N/A,Thunderstorm,Thunderstorm,130,2013-05-21 18:53:00
2:21 PM,73.4,69.8,88,29.83,9.0,East,4.6,-,0.00,Rain,Light Rain,100,2013-05-21 19:21:00
2:35 PM,73.4,69.8,88,29.82,7.0,ESE,3.5,-,0.00,Rain-Thunderstorm,Light Rain,120,2013-05-21 19:35:00
2:53 PM,73.9,70.0,87,29.81,10.0,Calm,Calm,-,0.00,Rain-Thunderstorm,Light Rain,0,2013-05-21 19:53:00
3:11 PM,68.0,64.4,88,29.83,5.0,NW,19.6,33.4,0.00,Rain-Thunderstorm,Rain,320,2013-05-21 20:11:00
3:19 PM,66.2,62.6,88,29.88,1.8,WSW,10.4,27.6,0.00,Rain-Thunderstorm,Rain,240,2013-05-21 20:19:00
3:24 PM,66.2,64.4,94,29.86,0.8,Variable,4.6,16.1,N/A,Rain-Thunderstorm,Heavy Thunderstorms and Rain,0,2013-05-21 20:24:00
3:31 PM,66.2,62.6,88,29.85,0.5,Variable,6.9,-,N/A,Fog-Rain-Thunderstorm,Heavy Thunderstorms and Rain,0,2013-05-21 20:31:00
3:36 PM,64.4,62.6,94,29.85,1.0,Calm,Calm,-,N/A,Rain-Thunderstorm,Light Thunderstorms and Rain,0,2013-05-21 20:36:00
3:39 PM,66.2,62.6,88,29.85,3.0,Variable,3.5,-,N/A,Rain-Thunderstorm,Light Thunderstorms and Rain,0,2013-05-21 20:39:00
3:53 PM,66.0,64.0,93,29.83,5.0,NE,6.9,-,N/A,Rain-Thunderstorm,Light Thunderstorms and Rain,40,2013-05-21 20:53:00
4:37 PM,66.2,64.4,94,29.82,10.0,Calm,Calm,-,N/A,Rain,Light Rain,0,2013-05-21 21:37:00
4:53 PM,66.9,64.0,90,29.81,10.0,SE,5.8,-,N/A,Rain,Light Rain,130,2013-05-21 21:53:00
5:02 PM,66.2,64.4,94,29.82,10.0,SSE,6.9,-,N/A,,Scattered Clouds,150,2013-05-21 22:02:00
5:53 PM,66.0,64.0,93,29.78,10.0,ESE,4.6,-,N/A,,Mostly Cloudy,110,2013-05-21 22:53:00
6:53 PM,66.9,64.0,90,29.80,6.0,East,8.1,-,0.00,Rain-Thunderstorm,Rain,100,2013-05-21 23:53:00
7:10 PM,66.2,64.4,94,29.78,2.5,East,10.4,-,0.00,Rain-Thunderstorm,Light Thunderstorms and Rain,90,2013-05-22 00:10:00
7:17 PM,66.2,64.4,94,29.81,10.0,East,4.6,-,0.00,Rain-Thunderstorm,Light Thunderstorms and Rain,100,2013-05-22 00:17:00
7:25 PM,66.2,64.4,94,29.79,10.0,ENE,8.1,-,0.00,Rain-Thunderstorm,Light Thunderstorms and Rain,70,2013-05-22 00:25:00
7:37 PM,66.2,64.4,94,29.83,10.0,Calm,Calm,-,0.00,Rain-Thunderstorm,Light Rain,0,2013-05-22 00:37:00
7:53 PM,66.0,64.0,93,29.86,3.0,West,5.8,-,N/A,Rain,Rain,260,2013-05-22 00:53:00
8:01 PM,66.2,64.4,94,29.85,4.0,WNW,6.9,-,N/A,Rain-Thunderstorm,Rain,290,2013-05-22 01:01:00
8:10 PM,66.2,64.4,94,29.87,4.0,WNW,8.1,17.3,N/A,Rain,Rain,290,2013-05-22 01:10:00
8:21 PM,66.2,62.6,88,29.86,8.0,WNW,10.4,19.6,N/A,Rain,Light Rain,300,2013-05-22 01:21:00
8:37 PM,66.2,62.6,88,29.87,10.0,West,5.8,-,N/A,,Overcast,280,2013-05-22 01:37:00
8:53 PM,66.0,63.0,90,29.86,6.0,SW,5.8,-,N/A,Rain,Light Rain,220,2013-05-22 01:53:00
9:53 PM,66.0,63.0,90,29.82,10.0,Calm,Calm,-,N/A,,Overcast,0,2013-05-22 02:53:00
10:53 PM,66.0,63.0,90,29.83,10.0,South,9.2,-,N/A,Rain,Light Rain,170,2013-05-22 03:53:00
11:53 PM,66.0,62.1,87,29.71,10.0,SE,20.7,27.6,N/A,Rain,Light Rain,140,2013-05-22 04:53:00